ランキン彗星

501P/Rankin (2014)

English version
Home page
Updated on June 14, 2025

---------------------------------------------------------------------

・ プロフィール

符号 501P/2014 N4

・ 軌道要素

                    Epoch = 2014 Apr. 13.0 TT
     T = 2014 Apr.  4.02342 TT        Peri. =  52.64506
     e = 0.6939088                    Node  = 140.65818 2000.0
     q = 0.6842515 AU                 Incl. =  10.12753
       a =  2.2354498 AU   n = 0.29488772   P =   3.34 years

・ 光度変化

        H = 19.5  G = 0.15

---------------------------------------------------------------------

軌道要素は、CBET 5520に掲載されたものです。
光度グラフはComet for Windowsで作成したものです。

---------------------------------------------------------------------

Copyright(C) Seiichi Yoshida (comet@aerith.net). All rights reserved.